DIRECTV 14

Last updated on Wed Nov 20 2024 00:02:41 GMT+0000 (Coordinated Universal Time)

1 40333U 14078B 24323.91756083 -.00000122 00000+0 00000+0 0 9990 2 40333 0.0161 305.9942 0000514 265.7351 77.8236 1.00268397 36293
UTC large
Height (km)
Speed (km/s)
/
Latitude / Longitude
Inclination (degrees)
Orbital Period (minutes)
Azimuth
Elevation
Range (km)
Doppler Factor

Next 0 passes for location: London (51.5072 / 0.1276)

Sorry there are no passes over London.